TimeEST,TemperatureF,Dew PointF,Humidity,Sea Level PressureIn,VisibilityMPH,Wind Direction,Wind SpeedMPH,Gust SpeedMPH,PrecipitationIn,Events,Conditions,WindDirDegrees,DateUTC
12:15 AM,44.6,41.0,87,29.98,10.0,Calm,Calm,-,N/A,,Overcast,0,2013-02-23 05:15:00
12:35 AM,44.6,41.0,87,29.98,10.0,NW,4.6,-,N/A,,Overcast,310,2013-02-23 05:35:00
12:55 AM,44.6,39.2,81,29.98,10.0,NW,4.6,-,N/A,,Overcast,310,2013-02-23 05:55:00
1:15 AM,44.6,39.2,81,29.98,10.0,WNW,4.6,-,N/A,,Overcast,290,2013-02-23 06:15:00
1:35 AM,44.6,39.2,81,29.98,10.0,WNW,3.5,-,N/A,,Overcast,290,2013-02-23 06:35:00
1:55 AM,42.8,39.2,87,29.98,10.0,WNW,3.5,-,N/A,,Overcast,290,2013-02-23 06:55:00
2:15 AM,42.8,39.2,87,29.98,10.0,West,3.5,-,N/A,,Overcast,260,2013-02-23 07:15:00
2:35 AM,42.8,37.4,81,29.98,10.0,West,4.6,-,N/A,,Overcast,280,2013-02-23 07:35:00
2:55 AM,42.8,37.4,81,29.98,10.0,West,5.8,-,N/A,,Overcast,280,2013-02-23 07:55:00
3:15 AM,42.8,37.4,81,29.98,10.0,West,3.5,-,N/A,,Overcast,280,2013-02-23 08:15:00
3:35 AM,42.8,37.4,81,29.96,10.0,West,4.6,-,N/A,,Overcast,280,2013-02-23 08:35:00
3:55 AM,41.0,35.6,81,29.96,10.0,West,3.5,-,N/A,,Overcast,280,2013-02-23 08:55:00
4:15 AM,41.0,35.6,81,29.96,10.0,WNW,8.1,-,N/A,,Overcast,290,2013-02-23 09:15:00
4:35 AM,41.0,33.8,76,29.96,10.0,WNW,8.1,-,N/A,,Overcast,300,2013-02-23 09:35:00
5:15 AM,39.2,33.8,81,29.97,10.0,WNW,4.6,-,N/A,,Overcast,290,2013-02-23 10:15:00
5:35 AM,39.2,33.8,81,29.97,10.0,WNW,9.2,-,N/A,,Overcast,290,2013-02-23 10:35:00
5:55 AM,39.2,33.8,81,29.97,10.0,West,5.8,-,N/A,,Overcast,280,2013-02-23 10:55:00
6:15 AM,39.2,33.8,81,29.97,10.0,WNW,5.8,-,N/A,,Overcast,300,2013-02-23 11:15:00
6:35 AM,39.2,33.8,81,29.96,10.0,WNW,6.9,-,N/A,,Overcast,300,2013-02-23 11:35:00
6:55 AM,37.4,33.8,87,29.97,10.0,WNW,4.6,-,N/A,,Overcast,290,2013-02-23 11:55:00
7:15 AM,37.4,33.8,87,29.98,10.0,NW,6.9,-,N/A,,Overcast,310,2013-02-23 12:15:00
7:35 AM,37.4,33.8,87,29.98,10.0,WNW,9.2,-,N/A,,Overcast,300,2013-02-23 12:35:00
7:55 AM,37.4,33.8,87,29.98,10.0,WNW,8.1,-,N/A,,Overcast,290,2013-02-23 12:55:00
8:15 AM,37.4,33.8,87,29.98,7.0,WNW,5.8,-,N/A,,Overcast,300,2013-02-23 13:15:00
8:35 AM,37.4,33.8,87,29.98,7.0,NW,6.9,-,N/A,,Overcast,310,2013-02-23 13:35:00
9:15 AM,35.6,32.0,87,29.99,7.0,WNW,9.2,-,N/A,,Overcast,300,2013-02-23 14:15:00
9:35 AM,35.6,32.0,87,30.00,10.0,WNW,10.4,-,N/A,,Overcast,300,2013-02-23 14:35:00
9:55 AM,35.6,32.0,87,30.00,10.0,WNW,9.2,-,N/A,,Overcast,290,2013-02-23 14:55:00
10:15 AM,35.6,32.0,87,29.98,10.0,WNW,8.1,-,N/A,,Overcast,300,2013-02-23 15:15:00
10:35 AM,35.6,32.0,87,29.98,10.0,West,5.8,-,N/A,,Overcast,280,2013-02-23 15:35:00
10:55 AM,37.4,32.0,81,29.98,10.0,NW,4.6,-,N/A,,Overcast,310,2013-02-23 15:55:00
11:15 AM,37.4,32.0,81,29.98,10.0,WNW,6.9,-,N/A,,Overcast,290,2013-02-23 16:15:00
11:35 AM,39.2,32.0,75,29.97,10.0,SW,3.5,-,N/A,,Overcast,230,2013-02-23 16:35:00
11:55 AM,39.2,32.0,75,29.96,10.0,SW,4.6,-,N/A,,Mostly Cloudy,230,2013-02-23 16:55:00
12:15 PM,41.0,32.0,70,29.96,10.0,WSW,3.5,-,N/A,,Mostly Cloudy,250,2013-02-23 17:15:00
12:35 PM,41.0,32.0,70,29.96,10.0,WSW,5.8,-,N/A,,Mostly Cloudy,250,2013-02-23 17:35:00
1:15 PM,42.8,32.0,66,29.94,10.0,SSW,3.5,-,N/A,,Scattered Clouds,200,2013-02-23 18:15:00
1:35 PM,44.6,30.2,57,29.93,10.0,WSW,6.9,-,N/A,,Clear,250,2013-02-23 18:35:00
1:55 PM,46.4,30.2,53,29.92,10.0,WSW,4.6,-,N/A,,Clear,240,2013-02-23 18:55:00
2:15 PM,46.4,28.4,50,29.91,10.0,WNW,5.8,-,N/A,,Clear,290,2013-02-23 19:15:00
2:35 PM,48.2,28.4,46,29.91,10.0,WNW,5.8,-,N/A,,Clear,300,2013-02-23 19:35:00
2:55 PM,48.2,26.6,43,29.91,10.0,West,3.5,-,N/A,,Clear,260,2013-02-23 19:55:00
3:15 PM,48.2,26.6,43,29.90,10.0,NW,4.6,-,N/A,,Clear,310,2013-02-23 20:15:00
3:35 PM,48.2,28.4,46,29.90,10.0,SW,4.6,-,N/A,,Clear,230,2013-02-23 20:35:00
3:55 PM,48.2,30.2,50,29.90,10.0,NW,6.9,-,N/A,,Clear,310,2013-02-23 20:55:00
4:15 PM,46.4,30.2,53,29.90,10.0,NNW,6.9,-,N/A,,Clear,330,2013-02-23 21:15:00
4:35 PM,46.4,30.2,53,29.90,10.0,NW,6.9,-,N/A,,Clear,310,2013-02-23 21:35:00
4:55 PM,46.4,30.2,53,29.90,10.0,NW,6.9,-,N/A,,Clear,310,2013-02-23 21:55:00
5:15 PM,44.6,28.4,53,29.90,10.0,NW,6.9,-,N/A,,Clear,320,2013-02-23 22:15:00
5:35 PM,44.6,28.4,53,29.90,10.0,WNW,6.9,-,N/A,,Clear,300,2013-02-23 22:35:00
6:15 PM,42.8,28.4,57,29.90,10.0,WNW,4.6,-,N/A,,Clear,300,2013-02-23 23:15:00
6:35 PM,41.0,28.4,61,29.90,10.0,WNW,5.8,-,N/A,,Clear,300,2013-02-23 23:35:00
6:55 PM,41.0,28.4,61,29.89,10.0,WNW,4.6,-,N/A,,Clear,300,2013-02-23 23:55:00
7:15 PM,41.0,28.4,61,29.89,10.0,NW,3.5,-,N/A,,Clear,310,2013-02-24 00:15:00
7:35 PM,39.2,26.6,61,29.89,10.0,WNW,4.6,-,N/A,,Clear,300,2013-02-24 00:35:00
7:55 PM,39.2,26.6,61,29.90,10.0,West,4.6,-,N/A,,Clear,280,2013-02-24 00:55:00
8:15 PM,37.4,26.6,65,29.90,10.0,West,4.6,-,N/A,,Clear,270,2013-02-24 01:15:00
8:35 PM,39.2,26.6,61,29.91,10.0,WSW,4.6,-,N/A,,Scattered Clouds,250,2013-02-24 01:35:00
8:55 PM,39.2,26.6,61,29.91,10.0,WSW,4.6,-,N/A,,Mostly Cloudy,250,2013-02-24 01:55:00
9:15 PM,37.4,26.6,65,29.91,10.0,WSW,4.6,-,N/A,,Overcast,250,2013-02-24 02:15:00
9:35 PM,37.4,26.6,65,29.92,10.0,West,6.9,-,N/A,,Overcast,260,2013-02-24 02:35:00
9:55 PM,37.4,28.4,70,29.93,10.0,West,6.9,-,N/A,,Overcast,260,2013-02-24 02:55:00
10:15 PM,37.4,28.4,70,29.94,10.0,West,5.8,-,N/A,,Mostly Cloudy,280,2013-02-24 03:15:00
10:35 PM,35.6,26.6,70,29.93,10.0,West,5.8,-,N/A,,Scattered Clouds,260,2013-02-24 03:35:00
10:55 PM,35.6,26.6,70,29.93,10.0,WSW,5.8,-,N/A,,Clear,250,2013-02-24 03:55:00
11:15 PM,35.6,26.6,70,29.94,10.0,West,5.8,-,N/A,,Clear,260,2013-02-24 04:15:00
11:35 PM,33.8,26.6,75,29.95,10.0,West,8.1,-,N/A,,Clear,270,2013-02-24 04:35:00
11:55 PM,33.8,24.8,70,29.94,10.0,West,5.8,-,N/A,,Clear,280,2013-02-24 04:55:00